Zurück zum Katalog

STARLINK-11745

AktivKommunikationVLEO
NORAD 64376·PAYLOAD·🇺🇸 United States

Gestartet Jun 13, 2025 von Cape Canaveral Space Force Station

Loading…

Nächste Überflüge (nächste 24 Stunden)

TLE

AktuellSource: CelesTrak SupGP

Epoche: Sep 14, 2026, 21:39 UTC

1 64376C 25127G   26257.90256944  .00074289  00000+0  57673-3 0  2571
2 64376  43.0008  24.0066 0001838 281.9713 337.3579 15.70812313    11

Verfolge STARLINK-11745 in Echtzeit mit AllMySat

Download on the App Store